RH
72 70 72 73 76 76 75 76 77 78 79 81 83 86 86 87 77 14 10 20 27 67 71 13 5 5 4 5 5 4 6 7 9 9 11 9 22 22 23 30 30 29 28 20 17
67 69 70 73 75 76 74 76 77 78 80 81 84 86 86 88 12 8 30 69 71 73 9 6 5 5 5 6 6 6 7 10 8 9 14 9 12 20 21 23 22 21 18 16 15
64 68 71 74 76 74 75 77 77 79 81 82 85 86 87 54 13 8 56 59 62 46 7 6 6 5 6 6 6 8 9 9 9 8 14 14 19 19 19 22 20 21 19 16 15
70 67 70 73 75 73 76 77 77 79 81 83 85 85 87 17 15 7 49 54 56 15 6 6 6 6 7 7 7 10 10 9 9 14 18 20 18 20 19 19 16 15 15 14 15
76 66 68 72 74 74 76 76 77 78 82 84 85 85 29 14 9 7 36 28 6 6 7 8 7 7 8 8 8 12 14 15 16 19 19 18 19 20 19 16 15 14 15 15 15
77 69 65 70 73 75 76 76 78 79 82 85 84 87 18 12 8 7 6 6 5 6 8 8 9 8 9 9 9 9 10 12 16 19 19 21 22 20 19 16 16 15 15 15 16
77 72 63 71 73 76 75 77 79 80 83 83 82 23 10 11 7 6 6 6 6 7 8 10 9 10 10 10 8 9 12 12 14 17 19 17 22 23 18 16 16 16 15 15 14
77 72 67 68 72 76 76 78 79 80 83 81 79 17 13 8 6 6 6 6 7 7 9 9 10 11 12 10 10 10 11 16 14 11 14 13 29 22 17 16 17 16 14 15 15
78 69 68 69 73 78 79 80 77 79 78 68 21 15 11 16 7 6 7 7 8 8 9 10 10 12 12 12 13 12 12 13 14 12 11 12 26 21 16 16 17 15 15 16 17
78 66 66 69 75 80 82 77 56 56 31 10 8 11 9 8 8 7 7 8 9 9 10 11 9 10 9 10 12 13 12 12 16 14 13 17 22 20 16 16 16 16 18 18 18
78 66 64 71 71 82 47 14 13 17 12 13 11 10 8 7 7 7 8 9 9 10 12 11 10 12 13 11 9 9 9 14 16 17 18 20 22 18 15 16 17 17 18 19 19
76 64 64 71 77 83 43 16 27 27 14 10 9 9 8 8 9 8 8 10 12 12 11 11 15 11 10 9 9 10 11 15 16 17 17 18 17 15 15 17 18 19 20 20 20
74 64 64 75 82 52 25 22 23 24 14 11 9 8 8 7 9 9 9 9 10 11 11 13 12 11 10 8 8 8 9 15 13 17 16 16 18 18 16 18 19 20 20 20 21
71 62 69 82 47 22 23 25 25 36 18 13 10 8 9 8 9 6 7 10 12 12 12 14 12 11 10 10 9 11 7 6 14 15 16 16 14 20 18 20 20 22 24 22 22
69 64 69 76 36 20 26 27 32 40 29 11 9 7 9 11 8 7 6 10 12 13 13 17 15 14 13 11 10 13 9 7 10 14 14 12 17 12 16 20 21 23 24 22 23
66 70 82 38 32 27 26 35 38 23 33 14 10 10 9 8 8 6 7 8 10 11 11 13 10 9 11 10 10 9 10 10 10 12 17 11 13 18 19 19 21 23 23 23 24
68 78 66 27 28 30 42 37 20 27 14 14 12 10 9 10 10 8 9 10 9 15 15 10 10 9 10 11 10 10 12 13 15 15 14 9 9 19 24 23 24 26 23 24 24
85 75 59 31 28 46 39 27 26 14 15 9 10 10 12 11 11 10 10 9 8 8 8 12 17 11 10 12 12 10 10 13 16 11 9 10 9 24 24 25 24 22 23 24 24
81 50 44 48 49 50 24 37 28 16 11 11 10 13 13 11 11 12 12 10 9 10 12 9 10 9 10 10 9 12 11 12 13 12 16 8 23 24 24 26 26 24 24 27 26
37 40 35 47 56 49 27 31 20 12 9 10 13 12 16 12 14 15 14 10 11 11 12 10 13 8 10 9 9 10 10 14 14 20 19 8 8 21 30 25 26 27 28 29 29
49 36 54 48 57 29 33 22 19 10 9 11 12 15 13 14 13 15 14 12 11 10 10 11 12 14 9 11 9 10 10 14 12 12 16 16 15 23 24 25 28 28 31 33 35
44 42 52 50 34 24 26 17 32 13 12 13 13 14 15 14 16 16 17 16 12 12 14 17 17 16 10 14 11 11 12 13 17 16 18 22 23 27 28 28 27 28 31 35 37
37 35 45 54 28 26 24 20 14 13 12 14 16 15 14 18 24 20 23 20 17 15 19 15 18 18 16 17 15 14 13 12 14 19 19 23 21 28 28 27 28 31 33 34 39
38 55 29 31 28 25 28 23 22 15 16 16 16 16 20 23 20 26 26 24 20 18 47 25 17 19 19 14 14 15 12 12 14 21 18 15 14 33 32 31 29 31 34 34 40
45 53 29 37 32 27 24 21 20 20 16 15 18 17 20 25 25 26 25 26 23 40 22 23 25 19 15 10 11 12 10 8 10 13 19 16 13 11 15 26 31 34 35 36 43
71 49 35 38 31 28 35 25 20 20 18 21 21 19 21 27 23 28 25 26 25 24 25 23 28 25 24 13 16 17 13 11 10 11 11 12 14 16 25 26 30 32 35 38 45
61 44 35 53 36 37 32 25 20 27 32 20 19 23 26 27 26 26 26 23 24 27 29 30 27 32 29 18 19 29 19 14 12 11 15 17 21 26 28 27 28 29 36 43 48
Wind_Speed
6 8 10 11 12 14 16 17 17 17 16 16 16 15 14 12 11 5 9 8 9 18 12 16 9 6 6 3 3 7 10 4 10 7 15 11 17 18 21 21 25 24 20 16 15
3 8 9 10 12 13 15 16 17 17 17 17 16 14 16 12 13 11 6 8 10 11 14 10 4 6 2 0 2 10 5 14 9 8 9 6 12 19 19 21 23 21 18 17 17
3 6 9 11 12 13 15 16 16 17 17 17 15 13 13 11 13 8 9 10 13 14 11 11 6 7 1 7 7 10 12 9 6 6 15 15 18 15 19 20 18 19 18 18 18
8 3 8 10 11 13 14 15 16 17 16 16 15 14 12 11 2 8 9 11 13 15 10 7 6 5 3 5 13 15 15 11 13 19 18 18 20 22 20 19 17 18 18 17 18
9 6 6 9 12 13 14 15 16 17 16 15 14 11 7 12 5 7 9 5 10 8 8 5 4 1 3 13 17 17 17 17 18 19 18 17 17 18 19 16 16 17 17 17 17
7 10 5 8 11 13 15 15 16 17 16 14 13 13 12 6 3 6 10 8 9 9 7 9 6 9 5 3 2 13 17 16 17 17 16 16 14 14 15 14 14 15 16 16 17
7 10 8 7 10 12 15 16 16 17 14 14 12 7 10 7 3 8 7 5 6 6 4 7 2 6 13 13 17 16 16 13 14 12 17 23 15 14 13 12 12 13 14 15 17
8 8 11 8 10 12 14 16 17 16 13 12 10 11 3 1 8 5 9 1 2 1 3 4 5 6 5 12 9 10 9 14 8 11 12 11 12 10 9 10 11 11 12 13 16
8 6 11 9 10 12 15 16 17 13 10 13 7 12 5 5 3 7 5 5 1 3 3 2 5 8 9 13 11 8 7 1 12 6 2 11 16 9 8 8 8 10 11 11 14
9 7 9 12 8 11 16 12 8 12 8 8 6 7 5 1 5 8 3 4 1 5 8 7 7 10 6 6 7 6 2 5 10 9 3 8 12 12 10 8 8 9 8 11 13
9 8 8 13 9 9 13 6 8 8 4 7 5 5 5 3 5 6 2 3 5 8 4 4 7 11 9 7 7 5 3 10 8 5 7 10 13 12 10 9 8 6 8 10 12
9 8 8 12 12 8 7 7 7 7 5 2 3 6 2 1 1 8 8 5 6 3 3 7 11 6 5 4 4 2 2 8 4 4 5 11 11 11 8 6 6 6 8 10 12
10 8 8 10 13 5 7 3 6 6 6 4 2 3 3 1 4 9 10 2 3 4 0 10 11 2 1 4 3 4 7 4 5 7 7 10 12 13 10 10 8 6 7 10 11
10 8 8 7 5 3 5 1 2 4 7 10 8 5 4 1 4 6 6 5 1 6 8 8 4 1 1 5 8 4 4 5 6 9 4 14 7 18 16 12 8 6 8 9 10
10 8 9 6 3 5 6 1 0 4 6 14 8 4 5 3 7 5 4 5 4 6 5 8 4 2 2 7 7 6 3 6 8 11 13 11 9 8 19 14 11 6 6 8 9
9 8 6 7 5 4 5 2 4 7 6 8 8 10 8 6 2 5 3 5 3 5 8 8 4 5 6 1 3 1 6 6 9 9 11 15 9 14 15 10 12 6 6 7 9
9 7 6 4 2 5 6 5 8 11 11 10 13 12 12 10 5 4 6 5 2 5 7 6 5 5 3 7 5 8 9 7 9 8 6 5 7 10 11 11 9 5 5 7 9
8 8 4 1 3 6 6 9 11 14 13 11 18 14 11 12 5 6 7 9 6 5 1 5 9 1 2 4 8 6 8 7 7 8 9 10 5 10 11 10 6 4 4 6 8
8 5 4 4 5 5 9 12 7 10 12 17 17 15 10 8 5 6 4 6 5 7 5 3 5 5 4 3 5 4 5 7 8 12 7 6 8 10 10 9 5 3 4 7 9
7 6 5 2 4 6 11 12 8 8 12 20 14 14 12 12 10 7 7 3 5 3 4 4 3 1 4 4 4 7 6 5 6 5 8 8 11 11 12 10 5 3 6 8 8
5 6 5 3 4 8 12 15 4 5 5 18 8 9 11 15 10 7 5 6 1 5 2 2 4 7 3 6 5 5 7 4 5 6 6 9 4 5 8 6 3 4 6 8 8
5 6 4 4 8 10 12 13 1 12 3 3 3 6 13 11 7 5 7 5 3 3 1 4 3 5 3 4 4 7 9 6 5 3 5 5 4 5 7 8 2 4 5 5 8
6 4 3 3 11 11 8 8 6 11 12 7 5 2 7 10 6 9 8 4 4 4 2 4 4 5 8 6 5 7 5 7 7 6 11 10 3 7 7 4 4 3 3 4 4
5 5 4 6 4 16 13 12 10 1 6 3 8 8 11 8 7 10 7 4 3 4 3 2 4 7 9 8 5 4 7 8 10 9 11 11 14 13 8 5 3 0 1 2 4
5 4 6 11 10 13 16 13 14 8 3 7 4 5 9 6 8 8 10 9 5 5 4 4 6 4 9 7 7 12 14 14 15 14 15 15 15 12 2 2 2 1 1 1 3
3 5 4 11 13 17 8 14 16 7 8 8 7 10 7 7 4 11 9 7 6 9 6 5 4 4 9 8 7 13 17 18 17 15 16 16 15 8 10 8 5 3 2 0 2
2 1 2 1 13 11 10 12 14 11 2 3 9 10 8 11 11 13 9 6 7 8 9 6 4 3 4 2 8 13 9 11 12 8 7 10 4 6 5 4 2 2 3 2 2
Wind_Direction
341 339 340 343 339 334 333 330 329 328 324 321 322 320 314 313 302 218 38 330 300 308 309 261 248 264 260 135 292 262 258 95 60 3 74 95 86 79 76 79 71 71 81 79 72
343 335 337 339 335 332 330 327 326 324 322 322 320 319 318 328 276 73 331 297 295 292 308 339 352 284 114 298 324 308 347 56 25 80 90 94 111 92 87 84 83 84 81 74 69
312 335 334 333 331 329 326 323 323 321 320 319 317 316 312 310 273 54 7 330 298 292 294 295 277 281 231 37 357 7 72 73 98 82 91 76 72 118 91 79 78 83 78 67 62
291 334 329 327 328 324 320 318 319 319 318 316 314 312 319 253 315 47 346 306 289 284 315 296 246 235 12 81 98 84 74 91 95 80 81 89 85 80 83 85 83 80 76 73 64
288 301 327 323 322 320 318 316 316 318 315 311 309 313 282 221 64 20 306 301 308 327 352 331 6 10 93 101 91 100 95 89 89 90 91 95 86 96 92 93 90 84 75 64 56
277 292 313 319 321 319 316 315 314 314 311 306 305 313 239 211 7 357 342 313 349 325 18 24 39 54 79 104 24 130 103 107 112 116 112 105 114 111 104 101 88 79 74 66 58
257 287 299 318 316 315 314 312 309 310 305 302 304 294 250 73 352 336 330 327 329 340 36 36 359 258 111 106 117 124 122 125 126 119 127 119 99 103 119 112 101 93 77 60 51
250 277 295 314 314 311 310 308 305 302 294 293 307 280 44 100 335 343 335 253 346 344 37 23 3 79 84 121 156 191 192 160 76 178 166 238 118 133 139 120 96 86 71 62 51
244 262 291 299 311 308 307 301 294 286 275 283 259 240 143 147 247 344 352 324 9 130 70 291 243 113 158 173 177 186 261 40 114 29 148 218 126 151 144 122 105 79 67 62 50
237 258 285 294 307 308 303 281 293 303 229 244 264 227 176 75 348 304 35 305 224 161 175 215 204 193 181 265 336 75 179 127 19 32 157 126 123 158 148 139 98 81 71 57 45
233 253 280 291 298 306 316 233 213 195 200 346 87 70 120 133 249 49 40 233 201 244 225 231 257 42 41 18 10 21 350 82 112 59 101 132 149 152 149 152 132 92 63 49 36
228 246 274 290 290 295 279 259 35 356 142 114 120 96 53 294 164 47 323 242 227 167 209 215 73 68 56 41 39 73 114 103 85 139 211 158 152 149 161 98 88 86 62 39 26
228 241 270 283 291 265 272 328 328 343 220 137 61 98 67 287 31 32 333 319 111 161 322 41 90 82 359 104 120 41 342 160 344 162 249 186 180 170 149 144 131 97 56 42 28
222 242 268 301 275 161 206 321 1 337 218 147 182 121 170 217 89 359 357 332 37 87 76 74 93 84 113 96 326 221 50 292 174 223 231 202 308 184 164 163 165 112 50 28 20
213 240 263 219 354 207 72 328 273 249 229 146 136 76 167 253 122 87 344 245 85 127 254 98 131 113 272 31 327 65 314 263 241 235 277 202 249 144 160 175 163 106 56 25 20
208 234 261 238 264 85 129 168 220 224 217 161 147 165 152 166 117 122 134 73 357 111 60 96 91 22 35 156 21 130 228 229 253 251 254 257 208 145 171 199 126 103 56 22 24
205 231 210 313 236 147 157 190 189 225 138 161 167 175 155 149 119 148 146 121 263 186 159 157 97 116 338 255 189 224 251 255 220 191 248 111 205 56 90 69 78 69 33 24 26
172 183 234 285 183 171 184 205 216 196 188 148 152 161 163 148 128 161 173 116 61 316 223 220 170 287 38 349 338 304 311 304 306 330 340 158 268 99 104 108 113 89 43 15 23
192 171 201 159 216 213 204 204 216 180 144 157 156 168 155 169 176 146 76 82 55 11 330 271 125 128 48 331 303 94 254 13 290 262 262 244 104 123 147 143 143 81 32 23 20
194 191 162 157 216 216 210 214 232 315 162 164 167 191 169 164 161 181 162 82 109 30 329 67 240 181 80 261 186 281 4 249 196 283 303 303 284 84 172 172 136 92 24 26 17
200 199 119 216 221 207 205 203 175 195 263 195 151 192 156 160 153 148 109 125 167 114 348 3 273 121 212 212 348 184 218 237 304 295 302 306 43 34 127 114 120 56 37 26 23
207 199 129 171 190 200 201 210 287 171 230 108 252 161 159 152 145 112 135 66 121 135 160 54 311 258 20 80 308 287 287 277 282 300 249 280 305 108 126 126 69 56 56 43 49
199 108 133 217 196 185 153 148 205 178 179 171 146 168 146 144 120 115 110 91 133 182 121 150 196 248 178 189 188 241 197 255 288 289 269 282 318 155 133 146 76 20 34 78 80
170 124 141 217 278 195 178 175 145 305 129 117 113 136 127 138 99 141 120 138 152 116 23 314 264 270 295 354 330 251 247 245 259 268 278 279 315 169 189 227 126 203 347 60 69
252 168 165 182 203 185 190 174 156 156 153 168 148 176 143 143 140 132 119 133 165 139 180 267 262 264 281 293 274 276 278 274 254 258 269 287 297 315 259 153 123 126 197 128 52
194 152 198 157 170 183 168 193 177 130 156 157 167 166 152 160 231 170 157 173 166 169 186 188 271 277 276 255 275 278 273 268 263 268 275 277 285 38 82 127 167 182 221 28 77
169 139 189 194 176 162 181 166 166 142 33 71 148 145 135 73 65 66 57 86 116 161 187 191 230 244 278 14 305 276 275 280 252 256 274 273 41 116 138 170 216 200 162 147 84